EW8148 Weather Reports


time (UTC)temp
C
wind
direction
speed
KPH
gust
KPH
rain 1hr
cm
rain 24hr
cm
rain mn
cm
humidity
%
barometer
mb
20260509090109 10 124 0.0 3.2 0.00 0.00 0.00 86 1022.6
20260509085608 10 140 0.0 3.2 0.00 0.00 0.00 86 1022.6
20260509085109 10 139 0.0 3.2 0.00 0.00 0.00 86 1022.7
20260509084608 10 181 0.0 1.6 0.00 0.00 0.00 86 1022.7
20260509084114 10 220 0.0 1.6 0.00 0.00 0.00 85 1022.7
20260509084108 10 181 1.6 4.8 0.00 0.00 0.00 86 1022.6
20260509083713 10 144 0.0 4.8 0.00 0.00 0.00 86 1022.7
20260509082606 10 221 0.0 4.8 0.00 0.00 0.00 85 1022.7
20260509082106 11 221 1.6 4.8 0.00 0.00 0.00 85 1022.7
20260509081613 11 240 1.6 6.4 0.00 0.00 0.00 85 1022.6
20260509081608 11 235 1.6 6.4 0.00 0.00 0.00 85 1022.6
20260509080608 11 182 1.6 8.0 0.00 0.00 0.00 85 1022.7
20260509080112 11 250 1.6 9.7 0.00 0.00 0.00 85 1022.7
20260509080108 11 222 1.6 9.7 0.00 0.00 0.00 85 1022.7
20260509075106 11 126 1.6 9.7 0.00 0.00 0.00 86 1022.7
20260509074610 11 355 1.6 9.7 0.00 0.00 0.00 86 1022.6
20260509074104 10 338 1.6 6.4 0.00 0.00 0.00 86 1022.6
20260509073605 10 167 1.6 8.0 0.00 0.00 0.00 87 1022.6
20260509073104 10 217 1.6 8.0 0.00 0.00 0.00 87 1022.6
20260509072606 10 108 0.0 3.2 0.00 0.00 0.00 87 1022.6
20260509072104 10 309 1.6 8.0 0.00 0.00 0.00 87 1022.6
20260509071609 10 65 0.0 3.2 0.00 0.00 0.00 87 1022.5
20260509071604 10 110 1.6 8.0 0.00 0.00 0.00 87 1022.5
20260509070606 10 354 0.0 3.2 0.00 0.00 0.00 87 1022.4
20260509070602 10 354 0.0 3.2 0.00 0.00 0.00 88 1022.4
20260509065601 10 56 0.0 1.6 0.00 0.00 0.00 87 1022.4
20260509065101 10 278 0.0 1.6 0.00 0.00 0.00 87 1022.4
20260509064601 10 278 0.0 1.6 0.00 0.00 0.00 87 1022.3
20260509064100 10 278 0.0 1.6 0.00 0.00 0.00 86 1022.3
20260509063602 10 278 0.0 1.6 0.00 0.00 0.00 86 1022.3
20260509063100 10 278 0.0 1.6 0.00 0.00 0.00 86 1022.3
20260509062559 10 278 0.0 1.6 0.00 0.00 0.00 85 1022.3
20260509062100 10 278 0.0 6.4 0.00 0.00 0.00 85 1022.2
20260509061556 10 278 1.6 6.4 0.00 0.00 0.00 85 1022.2
20260509061057 10 316 0.0 3.2 0.00 0.00 0.00 85 1022.2
20260509060556 10 29 0.0 3.2 0.00 0.00 0.00 84 1022.1
20260509060057 10 330 0.0 3.2 0.00 0.00 0.00 84 1022.1
20260509055558 10 115 0.0 3.2 0.00 0.00 0.00 84 1022.0
20260509055054 10 283 1.6 3.2 0.00 0.00 0.00 84 1022.0
20260509054553 10 288 1.6 4.8 0.00 0.00 0.00 83 1022.0
20260509054053 11 290 1.6 4.8 0.00 0.00 0.00 83 1022.0
20260509053553 11 220 1.6 9.7 0.00 0.00 0.00 83 1022.0
20260509053052 11 181 1.6 9.7 0.00 0.00 0.00 84 1022.0
20260509052550 10 154 1.6 4.8 0.00 0.00 0.00 83 1022.0
20260509052049 10 211 0.0 4.8 0.00 0.00 0.00 83 1022.0
20260509051549 11 169 0.0 4.8 0.00 0.00 0.00 82 1022.1
20260509051047 11 150 0.0 4.8 0.00 0.00 0.00 82 1022.1
20260509050549 11 213 0.0 4.8 0.00 0.00 0.00 82 1022.1
20260509050048 11 187 0.0 3.2 0.00 0.00 0.00 81 1022.0
20260509045553 11 243 0.0 3.2 0.00 0.00 0.00 80 1021.9
20260509045548 11 187 0.0 3.2 0.00 0.00 0.00 81 1021.9
20260509045047 11 243 0.0 3.2 0.00 0.00 0.00 80 1021.9
20260509044047 11 239 0.0 3.2 0.00 0.00 0.00 79 1022.0
20260509043546 11 262 1.6 8.0 0.00 0.00 0.00 79 1022.0
20260509043047 11 313 1.6 8.0 0.00 0.00 0.00 79 1022.0
20260509042546 11 159 0.0 3.2 0.00 0.00 0.00 78 1021.9
20260509042049 11 159 0.0 3.2 0.00 0.00 0.00 78 1022.0
20260509041547 11 13 0.0 3.2 0.00 0.00 0.00 77 1021.9
20260509041046 11 228 1.6 6.4 0.00 0.00 0.00 77 1021.9
20260509040545 11 136 1.6 6.4 0.00 0.00 0.00 77 1021.8
20260509040044 12 144 1.6 4.8 0.00 0.00 0.00 76 1021.8
20260509035545 12 65 1.6 6.4 0.00 0.00 0.00 76 1021.7
20260509035046 12 7 1.6 6.4 0.00 0.00 0.00 75 1021.7
20260509034547 12 24 1.6 4.8 0.00 0.00 0.00 75 1021.7
20260509034049 12 311 1.6 8.0 0.00 0.00 0.00 73 1021.6
20260509034044 12 259 1.6 8.0 0.00 0.00 0.00 74 1021.6
20260509033045 12 265 1.6 6.4 0.00 0.00 0.00 73 1021.5
20260509032549 12 359 1.6 4.8 0.00 0.00 0.00 73 1021.4
20260509032543 12 9 1.6 4.8 0.00 0.00 0.00 73 1021.5
20260509031542 12 293 0.0 4.8 0.00 0.00 0.00 72 1021.4
20260509031047 12 226 1.6 3.2 0.00 0.00 0.00 71 1021.3
20260509031043 12 226 0.0 3.2 0.00 0.00 0.00 71 1021.4
20260509030048 13 207 0.0 3.2 0.00 0.00 0.00 69 1021.3
20260509030042 13 221 0.0 3.2 0.00 0.00 0.00 70 1021.3
20260509025543 13 224 0.0 3.2 0.00 0.00 0.00 70 1021.4
20260509024542 13 224 0.0 3.2 0.00 0.00 0.00 69 1021.2
20260509024047 13 225 1.6 4.8 0.00 0.00 0.00 68 1021.2
20260509024043 13 183 1.6 4.8 0.00 0.00 0.00 68 1021.2
20260509023041 13 230 1.6 4.8 0.00 0.00 0.00 68 1021.1
20260509022541 13 217 1.6 4.8 0.00 0.00 0.00 68 1021.1
20260509022040 13 357 1.6 4.8 0.00 0.00 0.00 67 1021.1
20260509021542 13 352 1.6 4.8 0.00 0.00 0.00 67 1021.1
20260509021040 14 56 1.6 6.4 0.00 0.00 0.00 66 1021.1
20260509020542 14 221 3.2 8.0 0.00 0.00 0.00 65 1021.0
20260509020047 15 311 3.2 14.5 0.00 0.00 0.00 63 1021.0
20260509020041 15 34 1.6 9.7 0.00 0.00 0.00 64 1021.0
20260509015043 15 335 3.2 14.5 0.00 0.00 0.00 63 1021.0
20260509014538 15 259 3.2 11.3 0.00 0.00 0.00 62 1021.0
20260509014039 15 171 3.2 9.7 0.00 0.00 0.00 61 1021.1
20260509013538 15 205 3.2 11.3 0.00 0.00 0.00 60 1021.1
20260509013038 15 53 3.2 11.3 0.00 0.00 0.00 60 1021.1
20260509012545 16 15 3.2 9.7 0.00 0.00 0.00 57 1021.1
20260509012540 16 278 1.6 9.7 0.00 0.00 0.00 58 1021.1
20260509011540 16 105 1.6 9.7 0.00 0.00 0.00 57 1021.0
20260509011039 17 295 1.6 8.0 0.00 0.00 0.00 55 1021.0
20260509010539 16 329 3.2 8.0 0.00 0.00 0.00 56 1021.0
20260509010038 16 288 3.2 11.3 0.00 0.00 0.00 56 1020.9
20260509005540 16 236 3.2 11.3 0.00 0.00 0.00 55 1021.0
20260509005043 16 238 3.2 12.9 0.00 0.00 0.00 57 1021.0
20260509005038 16 314 3.2 9.7 0.00 0.00 0.00 55 1021.0
20260509004036 16 124 4.8 12.9 0.00 0.00 0.00 56 1021.0
20260509003538 16 354 3.2 8.0 0.00 0.00 0.00 56 1021.1
20260509003035 16 282 3.2 8.0 0.00 0.00 0.00 57 1021.0
20260509002533 16 201 3.2 8.0 0.00 0.00 0.00 56 1021.0
20260509002032 16 327 3.2 9.7 0.00 0.00 0.00 55 1021.0
20260509001533 16 240 4.8 14.5 0.00 0.00 0.00 54 1021.1
20260509001031 16 202 4.8 14.5 0.00 0.00 0.00 55 1021.0
20260509000532 16 149 3.2 14.5 0.00 0.00 0.00 56 1021.0
20260509000032 16 293 4.8 14.5 0.00 0.00 0.00 56 1021.0
20260508235531 16 200 4.8 17.7 0.00 0.00 0.00 54 1021.0
20260508235033 16 156 4.8 17.7 0.00 0.00 0.00 54 1021.0
20260508234534 16 322 4.8 16.1 0.00 0.00 0.00 54 1021.0
20260508234033 16 177 4.8 14.5 0.00 0.00 0.00 53 1020.9
20260508233532 16 193 3.2 11.3 0.00 0.00 0.00 53 1021.0
20260508233032 16 127 4.8 11.3 0.00 0.00 0.00 55 1021.0
20260508232532 16 4 6.4 14.5 0.00 0.00 0.00 56 1020.9
20260508232032 16 155 4.8 14.5 0.00 0.00 0.00 55 1020.9
20260508231530 16 323 4.8 14.5 0.00 0.00 0.00 54 1020.9
20260508231031 16 182 6.4 16.1 0.00 0.00 0.00 53 1021.0
20260508230531 16 131 4.8 16.1 0.00 0.00 0.00 53 1020.9
20260508230031 16 129 4.8 14.5 0.00 0.00 0.00 53 1020.9
20260508225529 16 10 3.2 11.3 0.00 0.00 0.00 54 1020.9
20260508225031 16 306 3.2 9.7 0.00 0.00 0.00 55 1020.9
20260508224532 16 153 4.8 16.1 0.00 0.00 0.00 56 1021.0
20260508224029 16 245 6.4 16.1 0.00 0.00 0.00 54 1021.0
20260508223530 16 189 4.8 14.5 0.00 0.00 0.00 54 1020.9
20260508223031 16 136 3.2 12.9 0.00 0.00 0.00 55 1020.9
20260508222530 16 51 3.2 8.0 0.00 0.00 0.00 56 1020.9
20260508222031 16 349 4.8 9.7 0.00 0.00 0.00 56 1021.0
20260508221531 16 262 4.8 12.9 0.00 0.00 0.00 55 1021.0
20260508221031 15 156 4.8 16.1 0.00 0.00 0.00 55 1021.0
20260508220531 16 230 3.2 16.1 0.00 0.00 0.00 53 1020.9
20260508220031 16 343 6.4 16.1 0.00 0.00 0.00 53 1020.8
20260508215536 16 155 6.4 19.3 0.00 0.00 0.00 52 1020.8
20260508215531 16 147 8.0 19.3 0.00 0.00 0.00 54 1020.9
20260508214535 15 179 6.4 17.7 0.00 0.00 0.00 53 1021.0
20260508214530 16 110 6.4 17.7 0.00 0.00 0.00 54 1020.9
20260508213531 15 318 4.8 16.1 0.00 0.00 0.00 56 1021.1
20260508213029 15 123 6.4 17.7 0.00 0.00 0.00 56 1020.9
20260508212528 15 160 8.0 19.3 0.00 0.00 0.00 55 1021.0
20260508212033 15 272 6.4 12.9 0.00 0.00 0.00 57 1020.9
20260508212028 15 150 6.4 19.3 0.00 0.00 0.00 56 1021.0
20260508211030 15 174 4.8 12.9 0.00 0.00 0.00 56 1021.0
20260508210534 15 214 6.4 17.7 0.00 0.00 0.00 57 1020.9
20260508210528 15 258 4.8 14.5 0.00 0.00 0.00 57 1020.8
20260508210155 15 130 4.8 22.5 0.00 0.00 0.00 57 1020.8
20260508205526 15 164 6.4 22.5 0.00 0.00 0.00 57 1020.9
20260508204526 15 165 3.2 11.3 0.00 0.00 0.00 57 1020.8
20260508204033 15 278 4.8 14.5 0.00 0.00 0.00 59 1020.7
20260508204026 15 86 3.2 9.7 0.00 0.00 0.00 59 1020.7
20260508203022 14 333 4.8 14.5 0.00 0.00 0.00 58 1020.7
20260508202522 14 161 4.8 16.1 0.00 0.00 0.00 59 1020.7
20260508202028 14 211 4.8 16.1 0.00 0.00 0.00 61 1020.7
20260508202023 14 248 6.4 16.1 0.00 0.00 0.00 58 1020.6
20260508201019 14 216 4.8 16.1 0.00 0.00 0.00 60 1020.7
20260508200522 14 193 4.8 12.9 0.00 0.00 0.00 60 1020.6
20260508200025 13 212 3.2 12.9 0.00 0.00 0.00 61 1020.7
20260508200019 13 206 4.8 12.9 0.00 0.00 0.00 60 1020.8
20260508195019 13 88 4.8 17.7 0.00 0.00 0.00 62 1020.7
20260508194517 13 195 6.4 17.7 0.00 0.00 0.00 61 1020.7
20260508194022 13 158 4.8 17.7 0.00 0.00 0.00 62 1020.7
20260508194015 13 150 4.8 14.5 0.00 0.00 0.00 62 1020.7
20260508193516 13 290 4.8 17.7 0.00 0.00 0.00 62 1020.7
20260508192519 13 243 4.8 16.1 0.00 0.00 0.00 62 1020.6
20260508192515 13 81 4.8 12.9 0.00 0.00 0.00 63 1020.7
20260508191516 13 141 4.8 14.5 0.00 0.00 0.00 62 1020.7
20260508191511 13 342 4.8 16.1 0.00 0.00 0.00 63 1020.6
20260508190510 13 119 6.4 16.1 0.00 0.00 0.00 63 1020.5
20260508190015 12 76 4.8 16.1 0.00 0.00 0.00 65 1020.5
20260508190008 13 165 4.8 16.1 0.00 0.00 0.00 62 1020.6
20260508185508 12 290 4.8 16.1 0.00 0.00 0.00 65 1020.6
20260508184509 12 176 4.8 16.1 0.00 0.00 0.00 65 1020.6
20260508184006 12 28 6.4 20.9 0.00 0.00 0.00 66 1020.5
20260508183509 12 67 6.4 20.9 0.00 0.00 0.00 65 1020.7
20260508183012 12 233 4.8 12.9 0.00 0.00 0.00 65 1020.5
20260508183007 12 262 4.8 12.9 0.00 0.00 0.00 65 1020.5
20260508182005 12 155 4.8 16.1 0.00 0.00 0.00 66 1020.5
20260508181506 11 120 6.4 16.1 0.00 0.00 0.00 66 1020.6
20260508181011 11 228 4.8 22.5 0.00 0.00 0.00 67 1020.5
20260508181005 11 172 4.8 16.1 0.00 0.00 0.00 67 1020.4
20260508180007 11 131 4.8 22.5 0.00 0.00 0.00 68 1020.4
20260508175506 11 336 4.8 14.5 0.00 0.00 0.00 68 1020.4
20260508175003 11 290 4.8 16.1 0.00 0.00 0.00 68 1020.3
20260508174505 11 108 4.8 16.1 0.00 0.00 0.00 68 1020.2
20260508174004 11 222 4.8 12.9 0.00 0.00 0.00 68 1020.1
20260508173503 11 327 3.2 14.5 0.00 0.00 0.00 68 1020.1
20260508173004 11 58 4.8 16.1 0.00 0.00 0.00 67 1019.9
20260508172503 11 105 4.8 16.1 0.00 0.00 0.00 67 1019.8
20260508172005 11 300 3.2 14.5 0.00 0.00 0.00 67 1019.7
20260508171504 11 342 4.8 12.9 0.00 0.00 0.00 66 1019.7
20260508171004 11 31 4.8 11.3 0.00 0.00 0.00 66 1019.6
20260508170505 11 352 3.2 9.7 0.00 0.00 0.00 67 1019.6
20260508170001 12 168 3.2 11.3 0.00 0.00 0.00 67 1019.6
20260508165503 12 297 4.8 14.5 0.00 0.00 0.00 67 1019.6
20260508165001 12 262 4.8 14.5 0.00 0.00 0.00 66 1019.4
20260508164508 12 100 3.2 9.7 0.00 0.00 0.00 66 1019.3
20260508164502 12 304 3.2 9.7 0.00 0.00 0.00 66 1019.4
20260508163502 12 113 4.8 9.7 0.00 0.00 0.00 66 1019.2
20260508163003 11 129 4.8 14.5 0.00 0.00 0.00 66 1019.2
20260508162502 11 149 4.8 14.5 0.00 0.00 0.00 68 1019.2
20260508162008 11 212 4.8 16.1 0.00 0.00 0.00 68 1019.2
20260508162002 11 105 4.8 16.1 0.00 0.00 0.00 68 1019.1
20260508161002 11 76 3.2 11.3 0.00 0.00 0.00 68 1019.2
20260508160501 11 73 4.8 11.3 0.00 0.00 0.00 70 1019.0
20260508160001 11 290 4.8 11.3 0.00 0.00 0.00 70 1019.0
20260508155501 11 179 3.2 11.3 0.00 0.00 0.00 69 1018.9
20260508155002 11 56 1.6 11.3 0.00 0.00 0.00 70 1018.9
20260508154508 11 94 4.8 14.5 0.00 0.00 0.00 69 1018.8
20260508154502 11 134 3.2 11.3 0.00 0.00 0.00 69 1018.9
20260508153501 11 206 3.2 14.5 0.00 0.00 0.00 69 1018.9
20260508153001 11 297 4.8 16.1 0.00 0.00 0.00 69 1018.9
20260508152457 11 262 4.8 17.7 0.00 0.00 0.00 69 1018.8
20260508151958 11 240 4.8 17.7 0.00 0.00 0.00 69 1018.8
20260508151457 11 140 3.2 12.9 0.00 0.00 0.00 70 1018.8
20260508150958 11 179 3.2 11.3 0.00 0.00 0.00 70 1018.8
20260508150458 11 141 4.8 9.7 0.00 0.00 0.00 71 1018.9
20260508150005 11 134 4.8 16.1 0.00 0.00 0.00 72 1018.9
20260508145959 11 131 4.8 14.5 0.00 0.00 0.00 72 1018.8
20260508144957 10 104 3.2 16.1 0.00 0.00 0.00 73 1018.9
20260508144458 10 314 3.2 14.5 0.00 0.00 0.00 75 1018.9
20260508143959 10 352 4.8 14.5 0.00 0.00 0.00 75 1018.9
20260508143457 10 116 4.8 12.9 0.00 0.00 0.00 75 1018.7
20260508142956 10 224 3.2 9.7 0.00 0.00 0.00 76 1018.6
20260508142458 10 134 1.6 9.7 0.00 0.00 0.00 78 1018.6
20260508141954 9 99 1.6 6.4 0.00 0.00 0.00 79 1018.5
20260508141458 9 276 1.6 6.4 0.00 0.00 0.00 81 1018.6
20260508141002 8 288 1.6 11.3 0.00 0.00 0.00 81 1018.2
20260508140957 8 275 1.6 9.7 0.00 0.00 0.00 81 1018.5
20260508140455 8 338 1.6 9.7 0.00 0.00 0.00 81 1018.4
20260508140123 8 38 1.6 6.4 0.00 0.00 0.00 82 1018.0
20260508140118 8 264 1.6 11.3 0.00 0.00 0.00 81 1018.1
20260508134453 8 329 3.2 9.7 0.00 0.00 0.00 82 1017.9
20260508133950 8 216 3.2 9.7 0.00 0.00 0.00 83 1018.0
20260508133450 8 139 3.2 8.0 0.00 0.00 0.00 83 1017.9
20260508132950 8 5 3.2 9.7 0.00 0.00 0.00 83 1017.8
20260508132449 8 54 3.2 9.7 0.00 0.00 0.00 83 1017.8
20260508131950 8 142 1.6 8.0 0.00 0.00 0.00 83 1017.6
20260508131449 8 306 1.6 9.7 0.00 0.00 0.00 84 1017.4
20260508130949 8 82 3.2 9.7 0.00 0.00 0.00 84 1017.3
20260508130450 8 10 3.2 9.7 0.00 0.00 0.00 84 1017.3
20260508125949 8 257 1.6 9.7 0.00 0.00 0.00 84 1017.2
20260508125449 8 42 1.6 9.7 0.00 0.00 0.00 84 1017.1
20260508124950 8 280 1.6 6.4 0.00 0.00 0.00 84 1017.2
20260508124447 8 54 1.6 6.4 0.00 0.00 0.00 83 1017.3
20260508123947 8 220 3.2 12.9 0.00 0.00 0.00 83 1017.4
20260508123452 8 170 3.2 8.0 0.00 0.00 0.00 83 1017.2
20260508123447 8 176 3.2 12.9 0.00 0.00 0.00 83 1017.2
20260508122446 8 311 3.2 8.0 0.00 0.00 0.00 83 1017.2
20260508121949 8 143 3.2 9.7 0.00 0.00 0.00 83 1017.2
20260508121448 8 175 3.2 9.7 0.00 0.00 0.00 83 1017.1
20260508120946 8 113 1.6 11.3 0.00 0.00 0.00 84 1017.2
20260508120447 8 61 1.6 11.3 0.00 0.00 0.00 84 1017.1
20260508115948 8 256 1.6 9.7 0.00 0.00 0.00 84 1017.1
20260508115447 8 195 1.6 9.7 0.00 0.00 0.00 84 1017.0
20260508114948 8 232 0.0 1.6 0.00 0.00 0.00 84 1017.0
20260508114447 8 211 0.0 3.2 0.00 0.00 0.00 84 1016.9
20260508113948 8 244 0.0 4.8 0.00 0.00 0.00 84 1016.9
20260508113444 8 122 0.0 4.8 0.00 0.00 0.00 84 1016.8
20260508112946 8 143 0.0 3.2 0.00 0.00 0.00 84 1016.8
20260508112446 8 60 0.0 4.8 0.00 0.00 0.00 84 1016.7
20260508111953 8 195 1.6 4.8 0.00 0.00 0.00 83 1016.6
20260508111945 8 219 1.6 6.4 0.00 0.00 0.00 84 1016.7
20260508111444 8 214 1.6 6.4 0.00 0.00 0.00 84 1016.7
20260508110945 8 189 0.0 3.2 0.00 0.00 0.00 84 1016.7
20260508110445 8 195 1.6 3.2 0.00 0.00 0.00 84 1016.6
20260508110106 8 194 1.6 4.8 0.00 0.00 0.00 83 1016.4
20260508105607 9 209 1.6 4.8 0.00 0.00 0.00 83 1016.3
20260508104444 8 221 1.6 6.4 0.00 0.00 0.00 82 1016.4
20260508103945 8 234 1.6 6.4 0.00 0.00 0.00 82 1016.2
20260508103443 8 309 1.6 4.8 0.00 0.00 0.00 83 1016.1
20260508102943 8 283 1.6 8.0 0.00 0.00 0.00 83 1016.1
20260508102443 8 214 1.6 8.0 0.00 0.00 0.00 84 1016.1
20260508101945 8 293 0.0 3.2 0.00 0.00 0.00 83 1016.1
20260508101450 8 256 0.0 3.2 0.00 0.00 0.00 83 1016.1
20260508101445 8 287 1.6 3.2 0.00 0.00 0.00 83 1016.2
20260508100444 8 323 0.0 1.6 0.00 0.00 0.00 84 1016.2
20260508095942 8 38 0.0 1.6 0.00 0.00 0.00 84 1016.2
20260508095449 8 347 0.0 4.8 0.00 0.00 0.00 84 1016.1
20260508095443 8 131 0.0 0.0 0.00 0.00 0.00 84 1016.2
20260508095108 8 132 0.0 4.8 0.00 0.00 0.00 84 1016.1
20260508094943 8 347 0.0 3.2 0.00 0.00 0.00 84 1016.1
20260508093438 8 218 0.0 4.8 0.00 0.00 0.00 84 1016.1
20260508092938 8 218 0.0 4.8 0.00 0.00 0.00 84 1016.1
20260508092439 8 138 0.0 1.6 0.00 0.00 0.00 84 1016.1
20260508091944 9 165 0.0 1.6 0.00 0.00 0.00 83 1016.1
20260508091940 9 165 0.0 0.0 0.00 0.00 0.00 83 1016.2
20260508091601 9 165 0.0 1.6 0.00 0.00 0.00 83 1016.1